Regional Weather Roundup
Issued by NWS

Home | Current Version | Previous Version | Text Only | Print | Product List | Glossary On
Versions: 1 2 3 4 5 6 7 8 9 10 11 12 13 14 15 16 17 18 19 20 21 22 23 24 25 26 27 28 29 30 31 32 33 34 35 36 37 38 39 40 41 42 43 44 45 46 47 48 49 50
734
ASUS44 KFWD 290015
RWRTX
NORTH TEXAS HOURLY WEATHER ROUNDUP
NATIONAL WEATHER SERVICE FORT WORTH TX
700 PM CDT WED JUN 28 2017

NOTE: "FAIR" INDICATES FEW OR NO CLOUDS BELOW 12,000 FEET WITH NO
SIGNIFICANT WEATHER AND/OR OBSTRUCTIONS TO VISIBILITY.

TXZ118-119-290100-
DALLAS/FORT WORTH METROPLEX

CITY           SKY/WX    TMP DP  RH WIND       PRES   REMARKS
DFW AIRPORT    MOSUNNY   89  68  49 S16       29.82F HX  93
6HR MIN TEMP:  86; 6HR MAX TEMP:  91;

DALLAS LOVE    MOSUNNY   89  66  46 SE16      29.83F HX  91
6HR MIN TEMP:  86; 6HR MAX TEMP:  90;

FTW MEACHAM    SUNNY     89  69  51 SE20G29   29.82F HX  93
6HR MIN TEMP:  86; 6HR MAX TEMP:  91;

DAL-EXECUTIVE  SUNNY     87  68  52 S13G18    29.84F HX  90
6HR MIN TEMP:  84; 6HR MAX TEMP:  90;

FTW-ALLIANCE   MOSUNNY   87  68  52 S15G22    29.82F HX  90
FTW-NAS-JRB    MOSUNNY   88  70  55 SE14      29.83F HX  93
FTW-SPINKS     MOSUNNY   88  66  48 SE14      29.86F HX  90
ARLINGTON      SUNNY     88  68  51 SE16      29.84F HX  91
6HR MIN TEMP:  84; 6HR MAX TEMP:  89;

GRAND PRAIRIE  SUNNY     90  66  45 SE12      29.85F HX  92
ADDISON        MOSUNNY   88  68  51 SE16G23   29.85F HX  91
MESQUITE       SUNNY     88  66  48 SE9       29.85F HX  90
LANCASTER      SUNNY     87  67  50 SE13      29.86S HX  90
6HR MIN TEMP:  85; 6HR MAX TEMP:  90;

$$

TXZ091>094-102>105-117-120-121-131>134-290100-
NORTH CENTRAL TEXAS

CITY           SKY/WX    TMP DP  RH WIND       PRES   REMARKS
SHRMAN/DENISON MOSUNNY   87  68  52 S15       29.85R HX  90
6HR MIN TEMP:  85; 6HR MAX TEMP:  89;

GAINESVILLE    SUNNY     85  66  52 S18G24    29.85S
6HR MIN TEMP:  84; 6HR MAX TEMP:  87;

BOWIE          SUNNY     86  68  53 S14G24    29.84R
6HR MIN TEMP:  85; 6HR MAX TEMP:  89;

BRIDGEPORT     SUNNY     87  66  50 S13G21    29.84F
6HR MIN TEMP:  85; 6HR MAX TEMP:  89;

DECATUR        SUNNY     87  67  50 S15G23    29.84S HX  90
6HR MIN TEMP:  84; 6HR MAX TEMP:  89;

DENTON         SUNNY     87  69  54 S20       29.82F HX  91
6HR MIN TEMP:  84; 6HR MAX TEMP:  90;

MCKINNEY       SUNNY     87  70  56 S14       29.83F HX  92
6HR MIN TEMP:  84; 6HR MAX TEMP:  89;

BONHAM         SUNNY     86  68  54 S12       29.85S
GREENVILLE     SUNNY     91  68  46 SE10G16   29.85F HX  95
ROCKWALL       MOSUNNY   87  71  59 S14G21    29.85F HX  92
6HR MIN TEMP:  84; 6HR MAX TEMP:  90;

TERRELL        SUNNY     88  68  51 SE12      29.86F HX  91
6HR MIN TEMP:  84; 6HR MAX TEMP:  90;

WAXAHACHIE     MOSUNNY   87  69  55 SE8       29.86F HX  91
6HR MIN TEMP:  84; 6HR MAX TEMP:  90;

CLEBURNE       SUNNY     88  68  51 S13G18    29.87S HX  91
GRANBURY       SUNNY     89  66  46 SE15G23   29.85S HX  91
6HR MIN TEMP:  86; 6HR MAX TEMP:  91;

$$

TXZ083>090-098>101-113>116-127>130-139>142-154-155-290100-
WESTERN NORTH TEXAS

CITY           SKY/WX    TMP DP  RH WIND       PRES   REMARKS
WICHITA FALLS  MOSUNNY   87  67  51 S17       29.80S HX  90
6HR MIN TEMP:  87; 6HR MAX TEMP:  91;

WF-KICKAPOO    SUNNY     89  68  50 S17G28    29.83R HX  92
6HR MIN TEMP:  88; 6HR MAX TEMP:  92;

VERNON         SUNNY     92  58  32 S22       29.79S HX  91
6HR MIN TEMP:  82; 6HR MAX TEMP:  95;

ABILENE        SUNNY     88  64  44 SE21G29   29.84S
6HR MIN TEMP:  87; 6HR MAX TEMP:  91;

ABILENE-DYESS  SUNNY     91  67  45 SE18      29.82R HX  93
6HR MIN TEMP:  89; 6HR MAX TEMP:  93;

GRAHAM         SUNNY     88  66  49 SE13G20   29.81S HX  90
6HR MIN TEMP:  87; 6HR MAX TEMP:  90;

BRECKENRIDGE   SUNNY     88  65  46 SE20      29.83S HX  90
6HR MIN TEMP:  87; 6HR MAX TEMP:  90;

CISCO          SUNNY     86  68  54 SE17G26   29.86S
EASTLAND       MOSUNNY   85  68  55 SE17G24   29.85F
6HR MIN TEMP:  83; 6HR MAX TEMP:  88;

RANGER         MOSUNNY   85  67  54 S14G20    29.86F
6HR MIN TEMP:  65; 6HR MAX TEMP:  87;

MINERAL WELLS  SUNNY     87  68  52 SE16G23   29.82F HX  90
6HR MIN TEMP:  86; 6HR MAX TEMP:  90;

STEPHENVILLE   MOSUNNY   87  66  50 S10G17    29.89F
6HR MIN TEMP:  82; 6HR MAX TEMP:  88;

COMANCHE       SUNNY     86  67  52 SE12      29.86F
6HR MIN TEMP:  82; 6HR MAX TEMP:  89;

BROWNWOOD      SUNNY     86  66  51 SE14G23   29.86S
COLEMAN        SUNNY     90  62  38 SE20      29.86S HX  90
6HR MIN TEMP:  87; 6HR MAX TEMP:  92;

$$

TXZ143>147-156>162-174-175-290100-
CENTRAL TEXAS

CITY           SKY/WX    TMP DP  RH WIND       PRES   REMARKS
WACO           MOSUNNY   89  69  51 SE10      29.85F HX  93
6HR MIN TEMP:  84; 6HR MAX TEMP:  91;

WACO-MCGREGOR  MOSUNNY   89  69  51 E10       29.86S HX  93
6HR MIN TEMP:  85; 6HR MAX TEMP:  91;

HILLSBORO      MOSUNNY   88  69  53 SE8       29.86F HX  91
6HR MIN TEMP:  85; 6HR MAX TEMP:  91;

CORSICANA      SUNNY     89  69  51 SE12      29.86F HX  93
6HR MIN TEMP:  86; 6HR MAX TEMP:  91;

MEXIA          MOSUNNY   87  68  52 SE7G17    29.85F HX  91
6HR MIN TEMP:  85; 6HR MAX TEMP:  90;

HEARNE         MOSUNNY   89  71  54 E5        29.85S HX  95
6HR MIN TEMP:  84; 6HR MAX TEMP:  91;

CAMERON        SUNNY     90  69  51 E8        29.84S HX  94
6HR MIN TEMP:  85; 6HR MAX TEMP:  92;

TEMPLE         SUNNY     89  68  49 SE14      29.86F HX  93
6HR MIN TEMP:  85; 6HR MAX TEMP:  92;

KILLEEN        SUNNY     88  66  48 SE12      29.85F HX  90
6HR MIN TEMP:  83; 6HR MAX TEMP:  90;

KILLEEN-SKYLRK MOSUNNY   89  70  53 SE7       29.86F HX  94
FORT HOOD      MOSUNNY   88  67  49 SE8       29.83F HX  90
6HR MIN TEMP:  83; 6HR MAX TEMP:  90;

HAMILTON       MOSUNNY   87  67  51 SE15      29.88F HX  90
6HR MIN TEMP:  84; 6HR MAX TEMP:  89;

LAMPASAS       MOSUNNY   88  71  55 SE9G18    29.86F HX  93
6HR MIN TEMP:  82; 6HR MAX TEMP:  91;

$$

TXZ095>097-106>112-122>126-135>138-148>153-164>167-290100-
EAST TEXAS

CITY           SKY/WX    TMP DP  RH WIND       PRES   REMARKS
PARIS            N/A     87  69  54 SE14      29.87F HX  91
6HR MIN TEMP:  84; 6HR MAX TEMP:  89;

SULPHUR SPRNGS MOSUNNY   88  67  50 S12G17    29.88S HX  91
6HR MIN TEMP:  85; 6HR MAX TEMP:  90;

MOUNT PLEASANT SUNNY     86  68  53 SE6       29.89S
6HR MIN TEMP:  85; 6HR MAX TEMP:  89;

GILMER         SUNNY     87  68  53 SE5       29.87F HX  90
6HR MIN TEMP:  85; 6HR MAX TEMP:  89;

MINEOLA        MOSUNNY   86  70  58 SE5       29.87S HX  90
TYLER          MOSUNNY   87  69  54 SE9       29.87F HX  91
6HR MIN TEMP:  85; 6HR MAX TEMP:  90;

LONGVIEW       MOSUNNY   87  71  58 SE7       29.87F HX  93
6HR MIN TEMP:  86; 6HR MAX TEMP:  89;

MARSHALL       SUNNY     85  70  59 CALM      29.91S
6HR MIN TEMP:  85; 6HR MAX TEMP:  87;

ATHENS         SUNNY     86  68  54 SE6       29.85F
PALESTINE      MOSUNNY   86  71  61 E8        29.88S HX  92
JACKSONVILLE   MOSUNNY   86  70  58 E7        29.91S HX  91
HENDERSON      SUNNY     86  70  58 SE6       29.89S HX  91
6HR MIN TEMP:  84; 6HR MAX TEMP:  89;

CENTER         CLEAR     89  72  57 SE8       29.90S HX  96
6HR MIN TEMP:  89; 6HR MAX TEMP:  92;

NACOGDOCHES    SUNNY     84  72  65 SE8       29.86F
6HR MIN TEMP:  82; 6HR MAX TEMP:  88;

LUFKIN         MOSUNNY   84  72  67 SE7       29.87F
6HR MIN TEMP:  84; 6HR MAX TEMP:  89;

$$

SUPPLEMENTAL OBSERVATIONS (NWS FORT WORTH AREA)

CITY           SKY/WX    TMP DP  RH WIND       PRES   REMARKS
DENISON DAM      N/A     88  68  51 S8          N/A  HX  91
CADDO GRASSLND   N/A     88  66  48 S9          N/A  HX  90
PAT MAYSE LAKE   N/A     86  68  54 SE14        N/A
GREENVILLE       N/A     88  70  55 SE12        N/A  HX  92
CEDAR HILL       N/A     88  68  51 SE9         N/A  HX  91



USA.gov is the U.S. government's official web portal to all federal, state and local government web resources and services.